THORAD AGENA D DEB, 5220

Orbit data source: Space-Track

THORAD AGENA D DEB, 5220 is space debris in SSO originally from a launch on Wed, 08 Apr 1970 UTC launched from the Air Force Western Test Range (AFWTR). Debris objects in space refer to the collection of defunct objects orbiting the Earth. Examples of debris include non-operational satellites, rocket bodies, and fragments generated from explosions, collisions, or faulty payload assembly.

Loading next visibility...
Identifier
5220, 1970-025KG
Orbit
SSO
Country
Flag of USUS
Related business
Manufacturer
Unknown
Mission
Spacecraft
Bus & Motor
Unknown
Mass
Unknown
Launch date (UTC)
1970-04-08 (56 years ago)
Launch vehicle
Unknown
Launch site
Air Force Western Test Range (AFWTR)
Object type
Payload
Rocket body
Debris
Shape & HBR
Unknown shape, 0.1 m
Radar Cross Section
Medium (>0.1 m² and <1 m²)

Expand to show TLE details & history
Last TLE update: 22 hours ago

TLE from 22 hours ago
0 THORAD AGENA D DEB
1 05220U 70025KG  26208.14119598  .00001161  00000-0  31923-2 0  9998
2 05220  99.8343  86.0246 0382217 276.9235 240.9119 12.92629531636652
Epoch: 2026-07-27T03:23Z
TLE epoch observation values (Epoch: 2026-07-27T03:23:19.332Z)
Latitude
25.52309°
Longitude
-84.91061°
Altitude
1,444.866 km
Speed
7.071 km/s
True Right ascension
18h 02m 59s
True Declination
25° 24' 05"
Sunlit
Object was in daylight at epoch
Visualization orbit readout
Latitude
Unknown
Longitude
Unknown
Altitude
Unknown
Speed
Unknown
Apparent Right ascension
Unknown
Apparent Declination
Unknown
Sunlit
N/A
Visualization observer readout
Local Sidereal Time
14:23:46
Azimuth
Unknown
Elevation
Unknown
Doppler factor
Unknown
Orbital elements
Apogee altitude
1,581.516 km
Perigee altitude
995.454 km
Semi-major axis
7,666.622 km
Eccentricity
0.03822
Inclination
99.8343°
RAAN
86.0246°
Arg. of periapsis
276.9235°
True anomaly
237.17404°
Mean anomaly
240.9119°
Eccentric anomaly
239.03408°
Mean motion
3.23323 °/min
Orbital period
111.34 mins
BSTAR
0.0031923

Documentation

Showing up to 5 results
|